Wind_Speed
23 25 28 21 16 20 14 13 16 21 16 17 21 27 24 25 29 28 27 23 21 22 23 23 23 24 25 25 25 25 26 25 23 22 23 25 28 30 31 31 32 29 29 27
22 25 20 19 19 19 16 11 11 13 13 18 22 31 29 27 29 27 24 23 22 26 25 24 24 25 25 23 24 23 22 22 20 21 22 23 26 28 29 29 30 29 27 25
24 11 22 21 22 23 22 18 13 9 12 17 23 32 28 24 24 25 25 23 25 26 25 26 26 26 23 21 20 20 20 21 21 21 22 23 24 25 24 25 24 24 22 20
18 18 15 23 24 22 24 24 22 17 13 8 11 10 16 11 12 14 14 14 15 18 19 18 17 17 17 18 18 19 21 22 23 23 23 22 22 22 21 21 20 19 19 19
16 20 20 23 22 20 19 16 17 16 20 22 26 12 12 14 18 23 15 11 12 14 12 12 14 15 15 17 20 20 20 19 17 15 16 17 18 18 18 17 17 17 18 17
19 13 19 20 17 17 13 13 10 8 9 7 22 19 8 14 14 16 15 12 13 11 8 8 11 13 15 17 17 18 18 16 14 12 12 14 16 16 16 15 15 16 17 18
23 16 22 19 19 16 16 16 4 0 4 6 2 14 21 8 11 13 10 11 10 7 6 9 14 15 15 14 15 15 15 14 14 14 14 14 15 16 17 17 18 19 20 21
20 13 25 22 28 24 27 24 7 7 5 3 7 9 4 16 15 11 9 9 9 9 11 12 18 18 14 13 13 14 15 15 17 17 17 18 19 19 20 21 22 22 22 22
22 16 24 17 26 25 27 27 16 0 3 1 7 9 7 17 21 13 10 10 9 12 14 14 16 19 17 15 15 15 17 18 20 20 20 20 22 22 23 23 24 23 22 23
16 10 18 24 24 27 18 27 15 9 2 4 4 5 8 16 16 10 13 13 12 13 11 11 11 12 12 12 12 15 20 22 25 26 27 25 23 24 25 25 25 24 24 25
18 19 15 31 29 32 30 25 17 13 10 3 1 3 9 9 12 12 10 8 5 5 7 10 10 10 11 14 19 27 30 31 32 31 29 27 25 24 26 27 27 27 28 26
25 20 16 32 25 31 33 28 32 12 6 13 7 5 14 11 8 4 5 5 5 7 9 11 13 17 22 28 32 34 33 33 32 31 31 29 28 25 26 28 29 29 31 31
29 16 9 18 20 30 34 33 29 30 19 15 6 3 16 14 10 12 5 8 13 15 18 23 27 34 35 35 35 37 37 37 33 31 31 30 29 27 27 29 30 32 33 34
36 28 20 14 10 25 30 32 35 33 29 20 27 17 13 14 17 10 14 22 26 31 33 36 38 39 40 41 41 40 37 35 32 30 30 30 28 29 29 30 32 34 35 36
32 24 32 23 20 16 22 29 36 44 43 31 30 29 28 29 29 29 35 35 32 34 35 36 37 38 38 37 35 34 31 30 31 30 29 29 30 31 32 34 34 36 37 38
27 9 26 31 22 16 17 16 20 30 34 35 35 39 31 27 26 28 27 27 31 34 36 35 30 29 30 34 33 27 29 29 28 30 33 33 33 33 36 37 37 38 39 41
24 14 11 5 11 14 20 27 24 23 24 24 32 27 24 26 24 25 26 28 29 30 30 31 28 29 31 30 34 36 33 33 33 32 32 33 35 37 38 39 40 41 42 44
23 22 15 6 8 3 15 19 16 23 24 28 30 27 23 24 25 27 27 28 27 28 25 22 24 29 33 36 32 31 34 37 38 36 35 35 36 37 39 39 41 41 41 42
23 24 14 10 18 18 17 14 18 21 22 20 23 27 22 20 28 30 27 30 31 32 31 32 33 34 33 33 32 31 31 32 33 36 37 36 38 37 38 38 39 38 36 35
27 25 25 14 7 9 21 19 28 23 34 28 27 21 25 26 30 32 26 28 28 30 32 34 35 32 30 30 33 33 30 31 31 33 36 37 37 38 38 35 33 32 32 30
32 29 31 30 16 20 25 13 11 23 32 24 25 25 27 27 29 33 30 32 34 34 34 35 37 37 35 35 35 36 35 35 33 33 34 36 36 37 35 29 27 28 24 14
37 26 26 26 20 22 33 27 31 33 28 25 26 31 34 32 36 40 42 42 40 39 39 39 39 38 38 38 36 38 39 37 35 35 33 39 35 29 26 25 24 18 9 10
34 37 34 28 33 39 26 22 23 24 34 33 32 32 38 45 44 43 45 45 44 44 45 42 41 39 38 38 36 36 36 37 36 36 32 32 23 20 18 20 15 6 10 17
32 25 31 31 40 39 42 41 41 41 45 45 43 42 44 48 50 49 46 41 41 44 44 42 40 41 38 34 33 34 35 37 35 28 22 17 16 15 17 12 7 10 16 19
29 33 38 42 43 45 45 44 43 44 45 46 46 45 47 47 46 41 43 42 44 45 45 43 42 41 36 34 36 35 35 34 25 19 14 13 10 15 9 7 12 15 19 22
35 37 43 48 41 42 37 35 39 42 44 43 42 44 45 45 44 44 44 45 48 47 47 45 41 39 36 37 38 36 33 21 14 13 11 11 14 9 9 12 15 18 20 22
Wind_Direction
215 215 216 224 224 228 236 228 238 241 248 254 254 256 245 242 241 235 238 235 238 248 256 259 265 270 273 277 283 285 285 284 282 280 275 273 274 276 277 279 280 283 283 282
212 222 222 214 214 217 220 215 238 237 238 246 256 260 258 247 247 249 243 242 242 247 254 261 266 269 275 281 281 281 279 280 280 278 276 275 274 275 279 281 281 281 281 280
220 233 214 214 211 206 211 215 213 231 231 252 270 277 272 263 256 250 248 242 242 252 259 261 266 270 273 277 278 280 281 282 283 281 279 277 276 278 281 281 280 279 280 280
232 219 221 216 218 216 217 228 225 240 258 259 278 290 264 261 247 236 232 230 231 244 254 260 259 261 267 273 276 280 284 284 282 278 278 277 277 279 281 281 281 280 280 280
215 211 213 209 218 218 223 228 235 243 253 269 264 268 289 254 249 242 242 222 225 230 240 265 266 261 261 271 280 286 290 293 293 289 287 285 282 279 276 275 277 278 278 279
220 215 208 218 211 217 227 221 201 206 242 268 257 229 266 238 231 235 235 222 226 231 262 263 255 255 269 277 287 291 294 298 300 296 290 283 279 278 278 276 272 272 276 281
209 201 205 203 194 204 207 182 131 226 199 232 293 211 232 189 198 208 217 216 222 220 264 267 246 263 279 285 288 291 295 300 302 301 295 287 284 282 280 278 276 276 277 279
187 203 200 205 205 202 204 192 183 194 191 233 197 225 236 198 194 184 212 219 233 266 280 269 255 262 282 289 292 294 295 300 302 299 294 288 283 280 279 278 276 274 276 280
189 208 200 205 207 204 202 208 223 6 246 299 214 239 190 196 208 219 265 248 241 264 274 265 261 266 287 292 290 298 305 308 311 309 300 290 284 280 277 276 276 274 276 280
204 198 206 202 201 210 214 208 207 210 156 242 250 229 221 204 208 217 233 253 249 261 256 262 267 261 266 279 292 299 303 306 308 306 302 295 287 278 274 274 273 270 273 281
208 203 194 196 203 203 206 203 208 205 222 178 191 217 169 199 222 233 217 212 218 233 228 229 244 267 284 291 300 309 309 313 312 307 301 290 285 279 273 270 270 267 269 277
197 211 196 202 204 208 216 212 207 202 209 223 255 242 164 153 125 126 158 169 219 252 258 261 266 280 299 304 306 306 308 308 305 301 297 292 281 278 273 269 269 270 271 276
200 210 161 190 203 210 212 208 215 223 233 232 192 187 200 233 190 153 190 253 276 278 288 293 296 302 305 304 302 301 301 302 300 296 289 290 282 277 277 274 272 273 274 277
218 214 204 196 220 213 218 222 224 227 235 239 241 233 227 226 207 227 268 291 294 291 291 292 292 293 294 294 293 294 294 294 289 288 286 284 282 275 279 279 276 275 277 280
207 220 219 221 227 222 233 241 236 231 237 236 255 259 260 254 251 262 279 288 285 283 282 283 283 281 282 284 286 289 288 289 285 280 280 283 280 277 276 277 278 278 279 280
212 236 208 212 207 211 233 236 234 237 244 252 255 259 268 279 283 284 286 288 286 285 284 277 272 276 277 280 278 287 283 283 286 287 280 278 278 280 278 276 276 276 278 279
194 188 174 210 208 232 249 240 243 249 251 251 251 266 279 281 279 289 290 282 280 281 285 282 273 275 281 275 273 284 282 281 285 284 284 280 275 275 278 277 274 275 277 281
210 207 202 189 208 259 247 240 247 253 259 258 264 270 279 280 290 286 288 289 286 292 289 290 282 279 276 277 281 282 280 282 286 282 279 280 278 275 276 277 274 273 277 281
219 202 201 207 216 254 247 222 229 243 264 260 263 271 288 288 281 285 289 289 287 285 277 278 284 284 279 281 285 288 290 290 285 280 276 276 276 277 275 275 274 274 277 276
204 216 225 204 202 217 270 263 247 254 254 268 272 279 287 275 272 288 286 287 292 290 287 286 283 281 285 289 280 279 291 294 296 289 280 278 278 276 272 270 271 272 271 267
211 221 220 225 229 254 256 240 230 214 268 298 286 277 277 263 276 286 286 288 289 292 291 290 283 277 277 282 282 277 287 295 298 300 295 286 276 274 273 270 269 263 253 256
211 204 213 217 225 256 257 234 227 281 283 277 270 260 255 266 280 279 281 287 289 290 294 289 288 285 281 284 280 279 284 289 294 298 292 298 280 276 270 264 255 250 266 300
213 222 220 221 234 253 263 271 274 265 272 274 267 260 269 280 283 282 284 285 286 285 286 288 287 290 287 284 281 281 282 284 292 293 284 284 270 261 256 247 246 291 309 283
217 225 232 241 251 258 264 265 267 269 273 276 278 276 274 279 279 278 279 278 280 280 283 284 287 291 286 279 278 282 281 289 291 280 273 267 257 251 239 252 295 283 276 287
235 237 243 248 258 260 260 264 272 274 275 274 271 271 273 274 275 276 270 276 276 275 279 287 285 289 280 276 276 283 287 287 271 258 244 235 237 237 252 279 274 282 284 286
241 248 243 249 268 264 270 273 273 270 270 270 274 277 277 273 271 272 272 270 272 278 281 284 283 280 275 275 278 280 278 253 228 213 216 223 230 248 264 265 269 276 285 290
Height
3115 3117 3118 3122 3124 3127 3128 3130 3131 3132 3133 3133 3133 3132 3134 3136 3135 3136 3139 3142 3142 3141 3141 3142 3143 3143 3144 3144 3145 3144 3143 3142 3143 3142 3141 3140 3139 3136 3136 3136 3135 3136 3135 3134
3112 3112 3118 3120 3121 3123 3125 3127 3130 3129 3130 3130 3129 3126 3128 3130 3129 3132 3135 3136 3137 3136 3136 3137 3138 3138 3138 3139 3138 3138 3138 3137 3138 3137 3136 3135 3133 3131 3131 3130 3130 3129 3129 3128
3107 3111 3114 3116 3117 3119 3122 3123 3127 3128 3126 3127 3124 3120 3121 3124 3125 3125 3126 3129 3130 3129 3131 3132 3133 3134 3134 3133 3133 3134 3133 3133 3132 3132 3130 3129 3127 3126 3125 3124 3124 3123 3123 3122
3105 3108 3110 3111 3113 3116 3118 3121 3123 3124 3126 3126 3124 3119 3116 3119 3120 3120 3120 3123 3124 3125 3127 3128 3129 3129 3129 3129 3129 3128 3129 3128 3127 3125 3124 3123 3122 3121 3120 3118 3118 3117 3118 3117
3100 3102 3106 3108 3110 3114 3116 3117 3120 3121 3123 3122 3121 3125 3109 3111 3113 3115 3118 3120 3121 3122 3123 3124 3125 3125 3126 3126 3125 3124 3123 3122 3120 3119 3118 3117 3117 3116 3115 3114 3113 3113 3113 3113
3098 3101 3104 3106 3109 3113 3115 3116 3119 3118 3120 3119 3115 3119 3107 3108 3111 3111 3113 3115 3117 3119 3121 3122 3122 3123 3122 3121 3121 3119 3118 3117 3116 3115 3114 3114 3113 3112 3112 3111 3110 3110 3109 3109
3094 3097 3100 3102 3105 3110 3112 3113 3117 3121 3119 3114 3110 3112 3103 3106 3107 3110 3112 3113 3114 3116 3118 3120 3120 3120 3118 3117 3117 3116 3114 3113 3113 3112 3111 3111 3110 3109 3108 3107 3107 3106 3105 3104
3088 3095 3095 3096 3097 3101 3105 3110 3108 3112 3111 3107 3107 3104 3101 3104 3106 3107 3110 3112 3112 3113 3115 3116 3116 3115 3115 3114 3113 3113 3111 3110 3109 3108 3107 3106 3106 3105 3104 3103 3102 3101 3099 3098
3081 3087 3089 3092 3093 3099 3102 3103 3108 3107 3107 3106 3102 3100 3101 3101 3103 3106 3107 3109 3110 3111 3111 3111 3111 3110 3111 3110 3109 3109 3107 3106 3104 3104 3103 3102 3101 3100 3099 3098 3097 3095 3094 3093
3075 3082 3084 3088 3091 3094 3096 3101 3104 3106 3109 3110 3097 3097 3096 3098 3101 3103 3105 3106 3108 3107 3107 3107 3106 3106 3107 3106 3105 3104 3103 3101 3100 3100 3098 3097 3095 3094 3093 3092 3091 3090 3088 3087
3072 3075 3081 3084 3083 3085 3091 3092 3096 3100 3099 3097 3098 3094 3094 3096 3098 3099 3102 3104 3104 3103 3104 3103 3103 3102 3102 3101 3100 3099 3098 3096 3094 3093 3091 3090 3089 3088 3087 3086 3084 3083 3082 3081
3068 3071 3075 3075 3077 3082 3085 3086 3090 3092 3094 3094 3093 3092 3091 3093 3095 3098 3100 3101 3101 3101 3101 3101 3100 3099 3098 3097 3095 3093 3091 3089 3087 3086 3085 3083 3082 3080 3079 3078 3077 3076 3075 3074
3059 3067 3070 3072 3075 3076 3076 3079 3085 3088 3090 3087 3090 3090 3090 3091 3092 3094 3096 3096 3095 3096 3096 3095 3093 3092 3091 3089 3087 3085 3083 3081 3080 3078 3076 3075 3074 3073 3072 3071 3070 3069 3068 3066
3059 3063 3063 3062 3063 3069 3073 3075 3079 3083 3082 3083 3081 3086 3087 3089 3088 3090 3090 3091 3092 3091 3090 3087 3085 3084 3083 3081 3080 3078 3076 3074 3072 3070 3068 3067 3066 3065 3064 3064 3063 3061 3060 3058
3055 3057 3060 3061 3063 3066 3069 3070 3072 3073 3076 3077 3078 3078 3081 3086 3087 3085 3085 3086 3083 3081 3081 3081 3080 3078 3076 3074 3072 3070 3067 3065 3063 3062 3060 3059 3058 3058 3056 3055 3054 3052 3051 3049
3051 3052 3054 3057 3059 3062 3063 3065 3065 3068 3070 3071 3072 3071 3077 3079 3080 3079 3079 3076 3074 3073 3073 3072 3070 3068 3066 3065 3063 3061 3059 3057 3055 3053 3052 3051 3050 3049 3048 3046 3045 3043 3041 3039
3046 3048 3053 3055 3057 3059 3057 3057 3061 3063 3064 3066 3064 3068 3071 3071 3071 3070 3068 3067 3065 3063 3062 3061 3060 3058 3057 3056 3054 3052 3050 3048 3046 3044 3042 3041 3039 3039 3037 3036 3035 3033 3031 3029
3043 3047 3051 3053 3056 3055 3049 3052 3055 3057 3059 3060 3059 3061 3063 3063 3063 3061 3061 3058 3057 3055 3053 3052 3050 3049 3047 3045 3044 3043 3042 3040 3037 3035 3033 3031 3029 3027 3026 3025 3024 3023 3021 3019
3040 3043 3046 3049 3049 3046 3043 3045 3050 3051 3051 3054 3054 3055 3055 3055 3052 3053 3053 3050 3048 3047 3045 3043 3042 3040 3039 3038 3036 3034 3032 3031 3027 3025 3022 3020 3019 3017 3015 3014 3014 3012 3011 3009
3035 3039 3043 3042 3045 3043 3035 3040 3044 3046 3037 3047 3046 3047 3047 3046 3041 3043 3043 3041 3040 3038 3036 3034 3033 3031 3030 3028 3026 3025 3023 3020 3018 3015 3012 3010 3009 3007 3005 3003 3003 3003 3002 3000
3028 3031 3032 3035 3037 3031 3031 3033 3039 3040 3032 3037 3040 3039 3037 3035 3034 3031 3031 3031 3030 3028 3027 3025 3024 3022 3020 3019 3017 3016 3012 3012 3009 3005 3002 3001 2999 2997 2996 2996 2996 2995 2994 2993
3017 3024 3026 3031 3034 3027 3022 3027 3029 3026 3025 3029 3030 3029 3026 3025 3024 3022 3020 3019 3019 3018 3016 3014 3012 3011 3009 3009 3006 3007 3002 3000 2998 2995 2992 2991 2989 2988 2989 2988 2989 2989 2989 2990
3012 3012 3016 3019 3014 3015 3013 3017 3018 3019 3019 3020 3020 3020 3018 3014 3012 3012 3010 3007 3006 3005 3003 3002 3001 2999 2998 2997 2996 2995 2992 2990 2987 2984 2982 2981 2981 2982 2982 2984 2985 2983 2985 2987
3003 3006 3008 3009 3005 3007 3006 3008 3009 3009 3008 3008 3008 3006 3004 3002 3002 2999 2997 2995 2993 2992 2991 2989 2989 2988 2986 2985 2984 2983 2981 2979 2977 2975 2974 2975 2976 2977 2979 2980 2979 2980 2982 2982
2997 3000 2998 2997 2996 2997 2997 2997 2998 2998 2997 2995 2995 2993 2991 2989 2988 2987 2985 2983 2981 2980 2979 2977 2977 2976 2975 2974 2973 2972 2971 2969 2968 2968 2968 2970 2971 2975 2974 2975 2976 2977 2978 2977
2986 2986 2983 2979 2985 2985 2987 2989 2987 2985 2983 2983 2983 2980 2978 2976 2975 2973 2971 2970 2968 2967 2966 2965 2964 2964 2963 2963 2962 2962 2960 2960 2961 2963 2965 2968 2969 2969 2971 2973 2973 2973 2972 2970